Regional Weather Roundup
Issued by NWS Newport/Morehead, NC

Current Version | Previous Version | Graphics & Text | Print | Product List | Glossary Off
Versions: 1 2 3 4 5 6 7 8 9 10 11 12 13 14 15 16 17 18 19 20 21 22 23 24 25 26 27 28 29 30 31 32 33 34 35 36 37 38 39 40 41 42 43 44 45 46 47 48 49 50

000
ASUS42 KMHX 211322
RWRMHX
WEATHER ROUNDUP FOR EASTERN NORTH CAROLINA
NATIONAL WEATHER SERVICE NEWPORT/MOREHEAD CITY NC
900 AM EDT TUE OCT 21 2014

NOTE: "FAIR" INDICATES FEW OR NO CLOUDS BELOW 12,000 FEET
WITH NO SIGNIFICANT WEATHER AND/OR OBSTRUCTIONS TO VISIBILITY

NCZ015>017-031-032-045>047-102-103-211400-
NORTH COAST

CITY           SKY/WX    TMP DP  RH WIND       PRES   REMARKS
EDENTON        MOSUNNY   63  59  86 SW6       29.93S
ELIZABETH CITY MOSUNNY   65  61  87 SW5       29.93R
KITTY HAWK     PTSUNNY   65  63  92 SW5       29.91F
MANTEO         PTSUNNY   65  62  91 SW5       29.92F

$$

NCZ045>047-081-094-103-104-211400-
CENTRAL COAST

CITY           SKY/WX    TMP DP  RH WIND       PRES   REMARKS
FRISCO         MOSUNNY   67  65  93 NW3       29.93R
SWANQUARTER      N/A     66 N/A N/A W8        29.88F

$$

NCZ095-097-098-100-101-211400-
SOUTHERN COAST

CITY           SKY/WX    TMP DP  RH WIND       PRES   REMARKS
BEAUFORT       MOSUNNY   66  60  81 W9        29.94S
CEDAR ISLAND     N/A     68 N/A N/A SW6       29.97S
JACKSONVILLE   MOSUNNY   61  58  90 NW3       29.94S
PINEY ISLAND   MOSUNNY   66  61  84 W7        29.94S
WILMINGTON     MOSUNNY   63  59  87 CALM      29.95S


$$

NCZ011>013-027>030-043-044-078>080-089-090>093-098-211400-
COASTAL PLAIN

CITY           SKY/WX    TMP DP  RH WIND       PRES   REMARKS
AHOSKIE        MOSUNNY   59  56  89 CALM      29.93S
CLINTON        SUNNY     57  57 100 CALM      29.95S
ELIZABETHTOWN  SUNNY     61  58  90 SW3       29.95S
GOLDSBORO      SUNNY     58  58  98 CALM      29.93R
GREENVILLE     SUNNY     61  59  94 SW3       29.96R
HAVELOCK       SUNNY     62  60  93 CALM      29.95F
KENANSVILLE    SUNNY     60  57  90 CALM      29.96R
KINSTON        SUNNY     59  59 100 CALM      29.95R
NEW BERN       SUNNY     63  58  83 SW5       29.95F
RICHLANDS      SUNNY     61  55  82 SW3       29.95S
ROCKY MOUNT    MOSUNNY   59  56  89 SW3       29.94R
WASHINGTON     SUNNY     60  57  89 SW3       29.94S
WHITEVILLE     SUNNY     62  57  82 CALM      29.95S

$$

AMZ130-135-150-152-154-156-158-170-250-252-270-ANZ085-086-088-633-658-670-211400-
MARINE OBSERVATIONS

STATION/POSITION TIME  TEMP    WIND        PRES    WAVE   SWELL
                       AIR SEA DIR/SP/G            HT/PER HT/PER
                 (UTC) (F)     (DEG/KT/KT) (MB)    (FT/S) (FT/S)
CHESAPEAKE LIGHT 1300   64     240/ 13/ 14 1013.3
64 E VA BEACH    1300   67 69  200/ 16/ 17 1012.3    4/ 5   2/10
DUCK             1300   65 69  240/  8/  9 1012.4
2 E DUCK         1300                        N/A     2/13   2/13
10 NE DUCK       1300      71                N/A     2/13   2/13
OREGON INLET     1300   66 66  240/  6/  7 1013.3
13E OREGON INLT  1300      74                N/A     2/13   2/13
HATTERAS CG      1300   68 71  290/ 11/ 13 1013.9
DIAMOND BUOY     1300   70     290/ 14/ 16 1013.3    3/ 5   2/11
17 S OCRACOKE    NOT AVBL
CAPE LOOKOUT     1300   69     280/  9/ 10 1013.8
BEAUFORT LAB     1300   66 70  300/  4/  8 1013.1
30 SE NEW RIVER  1300   71 76  310/ 10/ 10 1013.6    3/ 5   2/ 5
5 SE WRIGHTSVLE  1300   64 73  310/ 10/ 12   N/A
225 S CAPE HAT   1201   71 80  140/ 14/ 16 1015.0    4/11   3/11
41 SE CHARLESTON 1300   74 79  280/  6/  8 1014.0    2/10   2/10

$$


USA.gov is the U.S. government's official web portal to all federal, state and local government web resources and services.